[[{"header":{"parameterUnit":"m.s-1","parameterCategory":1,"la1":30.2992,"la2":30.254,"lo1":-89.0895,"lo2":-89.0443,"dy":0.0025,"dx":0.0025,"nx":19,"ny":19,"refTime":"2026-05-06T09:00:00:Z","depth":0,"parameterNumber":2,"parameterNumberName":"U-component_of_WINDS"},"data":[0,0,0,-0.5764,-0.5766,-0.588,-0.5881,-0.6003,-0.6004,0,0,0,0,0,0,0,0,0,0,0,-0.5716,-0.5716,-0.5763,-0.5766,-0.588,-0.5881,-0.6003,-0.6004,0,0,0,0,0,0,0,0,0,0,0,-0.5716,-0.5716,-0.5716,-0.5766,-0.588,-0.5881,-0.6003,-0.5925,0,0,0,0,0,0,0,0,0,0,-0.5818,-0.576,-0.5716,-0.5716,-0.5767,-0.588,-0.5881,-0.5922,-0.593,-0.5942,0,-0.5948,0,-0.5978,-0.6011,-0.6011,0,0,0,-0.5776,-0.5753,-0.5797,-0.5717,-0.5768,-0.5879,-0.5831,-0.5926,-0.5936,-0.5952,-0.595,-0.5956,-0.598,-0.6011,-0.6012,-0.6045,-0.6045,0,0,-0.577,-0.5729,-0.579,-0.5802,-0.5783,-0.5828,-0.5835,-0.5932,-0.5927,-0.5951,-0.5959,-0.5982,-0.6012,-0.6013,-0.6046,-0.6045,0,0,0,-0.5745,-0.5724,-0.5766,-0.5796,-0.5819,-0.5831,-0.5839,-0.5923,-0.594,-0.596,-0.5984,-0.6013,-0.6014,-0.6046,-0.6046,-0.5989,0,0,0,-0.5742,-0.5709,-0.5762,-0.5738,-0.5816,-0.5872,-0.5827,-0.5933,-0.5946,-0.5983,-0.6013,-0.6015,-0.6047,-0.6046,-0.5991,-0.5968,0,0,0,-0.5713,-0.5706,-0.5718,-0.5735,-0.5783,-0.5872,-0.5895,-0.5937,-0.5959,-0.6011,-0.6015,-0.6047,-0.6046,-0.5993,-0.5972,-0.5964,0,0,0,-0.5671,-0.5665,-0.5716,-0.572,-0.5782,-0.5836,-0.5895,-0.5937,-0.5975,-0.6013,-0.6047,-0.6046,-0.5994,-0.5974,-0.5966,-0.595,-0.594,0,0,-0.5641,-0.566,-0.5666,-0.5715,-0.5749,-0.5822,-0.5848,-0.5922,-0.5965,-0.6016,-0.6017,-0.599,-0.5972,-0.5965,-0.5897,-0.5888,0,0,0,-0.5642,-0.5645,-0.5664,-0.5698,-0.5754,-0.58,-0.5875,-0.5902,-0.5948,-0.5983,-0.5987,-0.5978,-0.5975,-0.5969,-0.5962,-0.5962,-0.6041,-0.6041,-0.6042,-0.554,-0.5596,-0.5608,-0.5677,-0.5709,-0.5786,-0.5817,-0.5868,-0.5914,-0.5914,-0.5929,-0.5881,-0.5873,-0.5867,-0.5867,-0.5926,-0.5926,-0.5925,-0.5925,-0.5501,-0.5514,-0.5577,-0.5611,-0.5669,-0.5699,-0.5772,-0.5804,-0.584,-0.5874,-0.5875,-0.5906,-0.5856,-0.5859,-0.5922,-0.5922,-0.5923,-0.5923,-0.5923,-0.544,-0.5456,-0.549,-0.5545,-0.5581,-0.5652,-0.5683,-0.5736,-0.5785,-0.5786,-0.5807,-0.5808,-0.5815,-0.5793,-0.5792,-0.5792,-0.5792,-0.5792,-0.5792,-0.5362,-0.5402,-0.5423,-0.5482,-0.5511,-0.5556,-0.5633,-0.5663,-0.571,-0.5746,-0.5746,-0.5791,-0.5841,-0.5852,-0.579,-0.579,-0.579,-0.5791,-0.5791,-0.5301,-0.5323,-0.5354,-0.5383,-0.5457,-0.549,-0.5557,-0.5613,-0.5646,-0.5659,-0.5706,-0.5734,-0.5758,-0.5764,-0.5773,-0.5694,-0.5694,-0.5694,-0.5694,-0.5248,-0.5265,-0.5309,-0.5351,-0.54,-0.5463,-0.5496,-0.5557,-0.5623,-0.5646,-0.5666,-0.5683,-0.5687,-0.5708,-0.5715,-0.5725,-0.5635,-0.5635,-0.5635,-0.5213,-0.5237,-0.5255,-0.532,-0.5382,-0.5435,-0.5467,-0.5514,-0.5593,-0.5634,-0.5666,-0.5668,-0.5696,-0.5703,-0.5742,-0.5753,-0.5771,0,0]},{"header":{"parameterUnit":"m.s-1","parameterCategory":1,"la1":30.2992,"la2":30.254,"lo1":-89.0895,"lo2":-89.0443,"dy":0.0025,"dx":0.0025,"nx":19,"ny":19,"refTime":"2026-05-06T09:00:00:Z","depth":0,"parameterNumber":3,"parameterNumberName":"V-component_of_WINDS"},"data":[0,0,0,7.3826,7.3831,7.4065,7.4066,7.4354,7.4356,0,0,0,0,0,0,0,0,0,0,0,7.3752,7.3754,7.3826,7.3832,7.4065,7.4066,7.4353,7.4356,0,0,0,0,0,0,0,0,0,0,0,7.3751,7.3753,7.3755,7.3832,7.4064,7.4066,7.4353,7.418,0,0,0,0,0,0,0,0,0,0,7.3955,7.3882,7.3753,7.3756,7.3834,7.4064,7.4066,7.4172,7.4191,7.4244,0,7.4291,0,7.4329,7.4375,7.4376,0,0,0,7.3835,7.3866,7.3934,7.3756,7.3836,7.4064,7.396,7.4183,7.4204,7.4269,7.4296,7.4307,7.4333,7.4377,7.4378,7.468,7.4681,0,0,7.3822,7.3791,7.3919,7.3947,7.3912,7.3953,7.3968,7.4196,7.4222,7.4297,7.4313,7.4338,7.4379,7.4381,7.4679,7.4681,0,0,0,7.3783,7.3781,7.3844,7.3935,7.3978,7.3959,7.3976,7.4211,7.4235,7.4317,7.4342,7.438,7.4384,7.4678,7.468,7.4713,0,0,0,7.3775,7.3759,7.3838,7.3821,7.3974,7.4098,7.3987,7.4219,7.4246,7.434,7.4381,7.4387,7.4676,7.4679,7.4709,7.4734,0,0,0,7.3738,7.3754,7.3787,7.3819,7.3919,7.4095,7.4132,7.4225,7.4261,7.4376,7.4387,7.4675,7.4678,7.4706,7.4728,7.4806,0,0,0,7.3689,7.3811,7.3787,7.3932,7.3917,7.4114,7.413,7.4279,7.4382,7.4382,7.4677,7.4679,7.4705,7.4725,7.4802,7.4865,7.4889,0,0,7.3825,7.3826,7.3914,7.3899,7.4094,7.4081,7.4281,7.4403,7.4441,7.4598,7.4606,7.4711,7.4728,7.4805,7.5031,7.5049,0,0,0,7.3946,7.4009,7.4068,7.4166,7.4264,7.4351,7.4447,7.4493,7.4628,7.4516,7.476,7.4771,7.4818,7.4849,7.4865,7.4908,7.4693,7.4692,7.4692,7.4092,7.4137,7.4287,7.4361,7.4456,7.4555,7.4636,7.4715,7.473,7.4787,7.4834,7.4966,7.5002,7.5014,7.5058,7.4871,7.4871,7.4871,7.4871,7.4295,7.4392,7.4413,7.4566,7.4613,7.4741,7.4842,7.4849,7.4975,7.4934,7.4977,7.4928,7.5033,7.5074,7.4874,7.4874,7.4873,7.4873,7.4873,7.4396,7.445,7.4506,7.4655,7.4765,7.4835,7.4956,7.4994,7.503,7.5072,7.5127,7.5127,7.5132,7.5096,7.5096,7.5097,7.5097,7.5098,7.5098,7.4478,7.4541,7.4639,7.4756,7.4826,7.4922,7.5025,7.5094,7.518,7.5198,7.5199,7.5209,7.5035,7.4991,7.5105,7.5104,7.5103,7.5102,7.5102,7.4668,7.4632,7.4784,7.4854,7.4996,7.5104,7.5151,7.529,7.5352,7.5411,7.5414,7.5278,7.5281,7.5269,7.5233,7.5403,7.5403,7.5403,7.5403,7.4754,7.476,7.4926,7.5035,7.5147,7.5207,7.5378,7.546,7.5538,7.558,7.5561,7.5516,7.5502,7.5513,7.5496,7.5463,7.5687,7.5688,7.5688,7.4874,7.4893,7.5031,7.511,7.5225,7.5322,7.5485,7.561,7.5691,7.57,7.5614,7.5602,7.553,7.5504,7.551,7.5482,7.5422,0,0]}]]